GFSGBSN_850_temp_276.txt.gz
Temp
11 11 12 12 12 12 13 13 14 14 15 15 16 16 17 18 18 19 19 20 21 22 23 24 24 24 24 25 29 30 31 31 30 30 30 29 30 29 26 27 28 25 27 28 28 27 26
11 11 11 12 12 12 13 13 14 14 15 15 16 16 17 18 19 19 20 20 21 22 23 24 23 24 24 24 30 30 31 30 30 30 30 30 31 30 28 28 27 26 26 27 27 26 25
11 11 11 12 12 12 12 13 13 14 15 15 16 17 17 18 19 20 20 21 22 22 23 24 23 24 24 29 30 30 30 31 31 31 31 30 30 31 31 27 27 26 25 25 24 26 23
11 11 11 11 12 12 12 13 13 14 14 15 16 17 17 18 19 20 21 21 22 23 23 24 23 24 26 30 29 30 30 30 30 31 31 32 31 30 28 27 26 25 22 22 24 25 24
11 11 11 11 12 12 12 13 13 14 14 15 16 17 17 18 19 20 22 22 22 23 23 23 23 24 27 30 30 30 30 31 31 31 32 32 31 28 28 24 23 22 23 22 24 24 25
11 11 11 11 11 12 12 13 13 14 14 15 16 17 18 19 19 21 22 23 23 23 23 24 23 22 29 30 30 30 31 31 31 31 31 32 30 24 23 21 22 24 23 25 22 24 24
10 11 11 11 11 12 12 13 13 14 14 15 16 17 18 19 19 22 23 23 23 23 23 26 26 26 28 29 30 30 31 31 31 31 28 30 26 25 25 24 25 24 23 24 25 26 24
9 10 10 10 11 11 12 12 13 14 14 15 16 17 18 20 20 22 23 23 24 23 23 26 26 26 28 29 28 31 31 30 30 28 28 27 25 26 28 25 25 24 23 23 26 26 25
9 9 10 10 10 11 11 12 13 14 14 15 16 17 18 20 21 22 22 22 23 24 23 25 28 28 29 30 29 31 31 31 29 27 27 25 28 29 29 28 27 27 23 24 26 25 25
8 9 9 10 10 10 11 12 13 14 14 15 16 17 18 20 21 21 22 23 24 24 18 22 27 29 30 30 30 31 31 31 29 27 27 26 29 29 28 27 27 26 27 28 29 25 23
8 8 8 9 10 10 11 11 12 13 14 15 16 17 17 18 19 20 22 23 24 24 22 27 27 31 31 31 30 31 32 31 28 28 27 27 29 29 28 29 28 26 28 28 28 24 23
8 8 8 7 9 10 10 11 12 13 14 15 16 17 17 18 19 20 22 23 23 19 22 28 30 28 28 29 30 31 32 32 32 29 28 27 32 30 28 30 31 28 26 25 21 22 22
8 8 8 8 9 10 10 11 12 13 14 15 16 17 17 18 20 20 21 22 18 19 25 28 27 26 26 27 28 29 28 28 26 27 26 28 30 32 30 29 29 27 23 22 22 20 23
8 8 8 9 10 10 11 12 13 13 14 15 17 18 19 20 20 20 20 18 21 23 25 27 27 25 26 26 28 27 26 26 26 26 24 26 27 28 29 28 28 28 24 21 24 21 22
8 7 8 8 9 10 11 12 13 13 14 15 17 18 20 22 20 20 20 16 18 22 28 27 27 26 26 28 28 28 26 25 27 25 26 26 27 31 31 31 30 30 28 25 21 21 21
8 8 7 6 8 9 11 11 12 13 14 14 16 18 21 22 19 20 16 15 19 24 25 25 26 25 24 25 27 26 25 26 28 27 27 27 27 29 32 32 31 30 28 27 20 23 23
7 7 6 6 6 7 9 10 12 12 13 15 16 16 20 21 19 19 14 14 20 24 26 24 25 27 26 26 25 25 26 29 28 29 25 25 26 27 29 29 29 29 27 23 21 20 20
6 6 5 6 6 6 7 9 11 12 13 14 15 12 19 19 18 16 15 19 22 22 24 23 24 28 29 29 28 25 27 29 32 31 29 26 23 26 30 29 29 28 28 23 22 25 19
5 5 5 6 6 6 6 7 9 10 12 13 13 15 21 20 15 15 17 19 22 22 23 24 24 26 28 28 28 26 27 30 32 27 29 27 23 24 26 25 28 31 31 26 21 19 23
5 6 6 6 6 6 6 7 8 9 10 12 13 11 19 20 21 18 19 18 20 25 24 25 25 26 26 27 26 28 29 30 30 29 30 29 22 23 23 26 27 27 29 30 24 22 23
4 5 6 6 7 7 7 7 8 9 10 11 12 12 16 13 15 15 16 18 20 21 24 26 26 27 26 26 25 28 28 28 29 31 30 25 26 27 24 26 29 30 31 30 28 26 27
3 4 5 6 6 7 7 7 8 9 10 11 11 12 13 14 16 17 16 18 20 22 22 23 26 26 26 25 26 27 29 27 28 29 29 23 26 28 28 27 28 30 29 29 29 30 29
3 3 4 5 6 6 7 8 8 9 9 10 11 11 12 14 14 16 16 17 19 21 24 25 25 26 26 26 28 29 30 32 27 26 25 24 22 21 26 26 28 26 28 26 25 25 25
3 3 3 4 5 4 5 6 7 8 8 8 9 9 10 11 14 15 16 17 18 18 20 24 27 24 29 31 30 31 30 29 26 26 25 21 21 20 22 25 26 27 26 26 25 25 24
3 3 3 3 4 5 4 5 6 7 8 9 9 8 10 9 12 15 16 16 16 19 21 25 28 30 31 29 24 24 23 27 28 26 26 23 19 21 23 22 25 27 26 28 24 24 25
3 3 3 3 3 4 5 6 6 7 8 9 9 9 9 10 12 13 14 16 14 15 17 26 28 29 30 21 22 24 24 25 26 28 22 21 20 22 20 25 25 24 25 27 24 22 25
3 3 3 2 2 3 5 6 6 7 7 8 9 9 9 10 12 13 13 13 15 15 14 18 20 26 28 19 21 22 24 26 25 25 26 21 20 22 21 23 23 25 26 27 26 22 25
3 3 3 3 3 2 3 5 6 7 7 8 9 8 8 9 11 13 13 13 14 15 14 18 19 22 20 21 21 21 22 23 24 24 24 23 21 21 19 21 23 26 26 24 22 25 26
3 3 3 3 3 3 2 4 6 7 7 8 9 9 8 9 12 13 14 15 15 15 13 16 18 19 20 19 19 19 22 20 20 23 23 23 21 21 21 20 22 26 26 26 26 26 26

GFSGBSN_850_temp_279.txt.gz
Temp
11 11 11 11 12 12 13 13 13 14 15 15 15 16 16 17 17 18 19 19 20 21 23 23 24 24 25 25 29 30 31 30 30 29 30 31 30 29 26 27 26 24 26 26 26 27 26
11 11 11 11 12 12 13 13 14 14 14 15 15 16 17 17 17 18 19 20 20 22 23 23 23 24 24 24 29 30 30 30 30 30 30 31 30 31 28 27 26 25 25 26 26 26 26
11 11 11 11 12 12 13 13 14 14 14 15 15 16 17 17 18 18 19 20 21 22 23 23 24 24 24 29 29 29 29 29 30 30 30 31 31 30 28 25 26 25 24 24 24 25 25
11 11 11 11 12 12 12 13 13 14 14 15 15 16 17 18 18 19 20 21 22 22 23 23 23 24 26 29 29 30 30 30 30 30 30 31 30 29 28 26 25 24 21 21 24 24 25
11 10 11 11 12 12 12 13 13 14 14 15 15 16 17 18 19 20 21 22 22 23 23 23 23 23 27 29 30 30 30 30 30 30 30 30 30 28 26 24 23 21 22 23 23 24 25
10 10 11 11 11 12 12 13 13 14 14 15 15 16 17 18 19 21 22 22 22 22 23 23 22 22 28 29 30 30 30 30 30 31 30 30 28 23 21 22 24 23 23 23 23 25 25
9 10 10 10 11 11 11 12 13 13 14 15 15 16 17 18 19 21 21 22 22 22 21 24 25 25 27 28 29 30 30 30 30 30 27 27 25 24 24 23 25 23 24 27 25 25 24
9 9 9 10 10 10 11 11 12 13 14 15 15 16 17 19 20 21 21 21 19 18 19 25 25 25 27 27 27 29 30 30 29 27 27 25 25 25 26 25 25 23 23 23 25 26 24
8 8 9 9 10 10 10 11 12 13 14 15 15 16 17 19 21 21 21 21 21 22 20 24 26 27 28 29 29 30 30 30 28 27 27 25 27 26 26 25 25 23 23 23 25 25 24
7 7 8 8 9 10 10 11 11 12 14 15 16 16 17 19 20 21 21 22 22 24 17 23 25 28 29 29 29 31 31 31 28 27 25 26 27 29 26 26 26 26 25 26 25 24 22
8 8 8 7 8 9 10 11 11 12 14 15 16 16 17 17 18 20 21 22 23 24 21 25 26 29 30 29 29 30 31 31 27 27 26 27 29 28 27 27 27 26 27 26 26 23 23
8 8 8 8 9 9 10 11 12 13 14 15 16 16 17 18 19 20 21 23 24 19 22 26 27 26 26 28 29 29 30 31 30 28 27 26 29 28 27 29 28 27 25 22 21 20 22
8 8 9 9 10 10 11 11 12 13 14 15 16 17 17 18 19 20 21 22 18 19 24 27 26 25 25 26 28 29 27 26 25 25 26 26 27 28 28 26 26 25 23 22 24 20 22
8 8 9 8 9 10 11 11 12 13 14 15 16 17 18 19 19 19 20 18 20 22 22 25 25 24 25 25 27 26 25 24 26 24 22 24 26 28 28 27 26 24 23 21 26 22 22
7 8 7 6 9 9 10 11 12 13 13 15 17 18 19 20 20 20 20 16 17 20 23 24 25 25 25 26 26 26 24 25 24 23 25 23 26 28 29 28 28 26 26 23 19 18 20
7 7 6 6 6 6 8 10 12 13 13 15 16 18 19 20 20 20 16 15 17 20 23 23 25 25 23 24 27 25 23 25 26 24 26 27 26 27 30 30 29 29 25 25 20 23 23
7 6 5 5 6 6 6 8 11 12 13 15 16 16 18 19 19 20 14 13 18 22 24 22 24 25 24 25 24 24 24 26 26 25 25 23 25 27 28 28 27 27 26 20 19 19 20
5 6 5 5 5 5 6 6 9 11 13 14 15 13 17 18 16 12 13 15 21 21 23 22 22 21 27 24 25 24 25 26 29 25 25 24 21 24 26 27 26 27 26 22 22 24 18
4 5 6 6 5 6 5 6 8 9 11 12 12 15 17 17 14 13 15 18 20 20 21 23 23 24 25 27 27 25 25 28 29 26 26 24 22 23 25 25 26 30 27 21 18 17 18
4 5 5 6 6 6 6 6 7 8 10 11 12 11 17 18 16 16 17 18 19 21 21 23 23 24 25 26 25 27 27 29 29 28 29 27 19 23 23 25 25 27 27 24 22 21 20
4 4 5 5 6 6 7 7 8 8 10 11 11 10 12 12 14 14 15 17 19 20 21 22 24 23 25 26 25 26 27 28 28 26 25 24 25 25 24 26 26 28 28 27 26 24 26
4 4 4 5 5 6 6 7 8 8 9 11 10 9 11 12 13 15 14 17 17 18 19 20 22 24 24 25 26 27 27 27 27 28 26 21 23 26 27 27 28 29 25 25 25 25 27
4 4 4 4 5 5 6 6 8 8 9 10 10 9 10 12 12 14 14 16 17 17 18 21 22 21 21 22 27 28 28 28 28 26 23 23 21 21 25 26 26 25 26 23 23 22 23
4 4 4 3 4 5 5 5 5 7 8 8 8 9 9 10 11 13 14 16 17 16 16 18 20 20 25 28 29 28 28 25 24 24 21 20 19 18 21 23 26 24 24 24 23 23 22
3 3 3 3 3 4 5 5 5 6 7 8 8 8 8 8 10 12 14 15 15 16 15 17 22 25 26 28 22 22 22 26 26 21 24 19 18 18 21 20 24 25 24 26 24 24 23
3 3 3 3 2 3 4 5 6 6 7 8 8 9 8 8 9 12 12 13 13 12 13 17 22 25 24 19 21 23 23 23 25 25 19 18 17 20 18 24 23 22 25 26 23 21 24
3 3 3 3 3 3 3 4 5 6 6 7 7 7 8 8 10 11 12 12 14 13 12 14 15 19 22 17 19 20 22 23 23 23 24 20 18 20 18 21 21 22 25 25 26 22 24
3 3 3 3 3 3 3 3 5 6 6 7 7 7 7 7 9 11 12 12 12 13 12 15 14 16 16 19 19 19 20 21 22 21 22 22 20 20 18 20 24 25 26 26 22 24 25
3 3 3 3 3 3 3 3 4 5 6 7 7 7 6 7 9 11 12 12 12 13 13 14 14 14 17 16 17 16 20 18 18 22 21 23 20 20 20 20 21 24 25 26 26 25 25

GFSGBSN_850_temp_285.txt.gz
Temp
11 11 11 12 12 12 12 13 13 13 14 14 15 15 16 16 17 17 18 19 20 21 22 23 24 24 25 26 28 29 30 30 30 30 29 29 29 28 29 28 27 28 27 26 25 26 26
11 11 11 11 11 12 12 13 13 13 14 14 15 15 16 16 17 18 18 19 20 21 22 23 23 24 24 25 29 29 30 30 30 30 29 29 29 29 27 27 27 26 26 26 25 25 25
10 11 11 11 11 11 12 12 13 13 13 14 15 15 16 17 17 18 19 20 21 22 22 23 23 24 24 28 28 29 30 30 30 29 29 29 29 29 27 27 25 25 27 26 26 25 25
10 10 10 11 11 11 11 12 12 13 13 14 15 15 16 17 17 18 19 20 21 22 23 23 23 24 26 27 27 28 29 29 29 29 29 29 29 28 26 25 26 27 26 26 26 26 25
9 9 9 10 10 11 11 11 12 13 13 14 15 15 16 17 17 18 19 20 21 22 22 22 23 24 26 27 28 28 29 29 29 29 29 29 29 26 26 28 28 26 27 26 26 26 26
8 8 8 9 10 10 11 12 12 12 13 14 15 16 16 17 17 19 19 20 21 21 22 22 23 23 27 27 28 29 29 29 29 28 29 29 27 29 27 29 28 28 27 26 26 26 26
7 7 7 7 9 10 10 11 12 12 13 13 14 16 16 17 18 19 19 20 20 21 21 23 23 23 25 27 28 28 28 28 29 28 31 27 30 30 29 28 28 27 27 27 27 26 27
7 7 7 7 7 9 9 10 11 12 13 13 14 15 16 17 18 19 19 19 18 18 19 23 23 24 25 26 27 28 28 29 29 30 28 29 30 29 27 27 28 27 28 28 27 26 27
6 6 7 7 7 8 9 10 11 12 12 13 14 15 16 17 18 18 19 19 19 19 19 22 23 25 26 26 28 28 28 28 29 28 29 30 29 27 28 27 28 28 29 27 27 27 25
8 7 8 8 8 9 9 10 11 12 12 13 14 15 16 17 18 18 19 19 20 19 23 25 24 26 27 27 28 28 29 29 28 29 28 30 27 29 29 29 28 29 27 27 27 28 28
8 8 9 9 9 9 9 10 11 12 12 13 14 15 15 16 17 18 18 19 20 19 25 25 25 26 27 28 28 27 29 29 29 28 29 30 29 29 30 30 28 29 28 27 27 27 27
7 8 9 8 8 9 8 9 10 11 12 13 14 15 15 16 17 18 19 20 20 23 24 25 25 26 27 27 27 27 28 29 27 29 28 30 28 30 31 28 28 27 28 27 26 27 28
6 8 8 7 7 7 7 9 10 11 12 13 14 14 15 16 18 19 19 20 22 22 24 25 26 26 28 28 28 29 29 29 29 28 29 29 31 29 29 30 28 28 30 29 29 29 29
4 7 7 6 5 5 5 6 10 11 12 14 15 15 16 17 18 19 19 22 21 23 24 24 25 25 28 27 27 27 28 28 26 29 28 29 29 30 30 31 31 28 30 30 27 28 28
3 5 6 5 4 5 5 6 9 10 12 14 15 16 17 17 19 19 18 21 22 22 22 23 25 27 26 27 28 28 28 29 28 28 30 29 29 29 29 29 30 27 29 29 28 24 27
3 4 5 5 4 4 5 5 7 11 12 13 15 16 16 17 18 18 20 19 20 20 21 23 25 26 27 27 28 28 27 28 28 28 28 29 29 29 29 29 28 30 27 29 28 28 28
4 4 5 5 5 5 5 4 7 10 12 14 15 15 16 17 17 18 20 20 19 20 20 23 24 24 26 27 28 28 28 27 30 28 28 28 30 29 29 30 31 28 29 26 28 27 29
4 4 4 5 6 6 6 7 7 9 12 14 14 17 14 15 17 13 19 17 18 21 21 22 23 23 26 25 26 27 28 28 27 27 28 29 29 30 31 28 28 29 30 31 31 27 25
4 4 4 5 5 6 7 7 7 9 10 11 12 13 15 15 18 17 17 19 19 21 22 23 23 24 25 25 27 26 27 26 25 29 28 28 29 29 30 30 28 30 27 27 28 28 27
4 4 4 4 5 5 6 7 7 8 10 11 12 16 15 16 14 18 19 19 20 20 21 21 22 23 24 25 25 26 27 27 26 29 28 29 29 30 31 31 31 29 28 27 31 31 27
4 4 4 4 4 5 6 7 8 9 10 11 11 11 10 16 16 16 18 18 19 20 20 19 23 23 23 25 26 27 27 27 26 24 26 31 30 28 29 28 29 30 29 27 29 29 32
3 3 4 4 4 4 5 6 8 8 10 10 9 10 10 12 11 15 14 18 19 19 19 21 22 21 22 24 24 25 26 27 29 24 27 26 29 28 29 28 28 29 28 28 28 26 27
3 3 4 4 4 4 4 6 7 8 9 9 8 9 8 11 14 16 16 16 17 18 18 19 19 20 21 22 19 22 23 25 26 27 27 28 27 28 29 27 28 29 28 28 26 27 28
3 3 3 3 3 3 3 4 6 7 8 8 8 9 9 14 14 15 14 15 16 16 17 18 18 19 20 20 22 21 23 25 24 24 25 24 26 26 28 27 28 27 26 26 26 25 26
2 3 3 3 3 3 3 4 5 6 7 7 8 8 8 12 11 14 14 15 15 15 16 16 18 18 18 19 24 26 26 26 24 23 25 25 26 24 28 28 25 25 25 26 28 26 26
2 3 3 3 3 3 3 3 3 6 6 7 7 8 8 9 12 10 12 13 15 16 17 16 16 17 18 22 24 25 27 27 26 25 23 24 25 29 24 27 27 29 27 26 28 26 25
2 3 3 3 3 3 3 3 2 5 6 6 6 7 7 8 9 9 12 13 13 13 15 14 14 16 16 21 24 25 27 25 26 27 26 26 25 28 26 27 27 26 26 26 27 29 25
2 2 3 3 3 3 3 3 3 3 5 5 6 6 6 7 8 9 9 10 11 12 14 14 16 16 18 20 22 24 25 25 25 24 26 27 27 26 24 26 27 25 25 28 27 25 25
2 3 2 3 3 3 3 3 3 3 4 5 5 5 6 6 8 9 9 10 10 11 12 12 14 14 15 17 18 18 22 22 25 27 22 26 28 28 28 29 22 25 26 26 26 25 23

GFSGBSN_850_temp_291.txt.gz
Temp
12 12 12 12 12 12 13 13 13 14 14 14 15 15 16 16 17 17 18 19 20 21 22 23 24 25 25 26 30 30 31 30 30 30 31 33 34 34 35 35 34 34 33 32 31 31 31
11 11 11 11 12 12 12 13 13 13 14 14 14 15 16 16 17 18 18 19 20 22 22 23 24 25 25 30 30 29 29 31 30 31 33 33 34 34 34 34 34 33 32 32 32 31 31
11 11 11 11 11 12 12 12 13 13 14 14 14 15 16 16 17 18 19 20 21 22 23 23 24 24 24 31 30 29 30 30 31 32 33 33 33 34 34 34 33 33 32 32 32 31 31
11 11 9 10 11 11 12 12 12 12 13 14 15 15 16 16 17 18 19 20 21 22 23 23 24 24 28 30 29 29 31 31 31 32 32 33 33 34 35 33 33 34 34 32 32 32 31
9 8 8 8 9 10 11 12 12 12 13 14 15 15 16 16 17 18 19 20 21 21 22 23 23 24 30 29 29 30 31 32 32 32 32 32 33 35 34 21 30 31 32 33 31 32 32
9 8 8 8 9 9 11 11 12 12 13 13 14 15 16 17 17 18 19 20 21 21 22 23 22 26 29 31 31 31 31 32 32 33 33 33 34 36 37 27 31 34 33 33 33 32 32
9 8 9 9 10 11 11 11 12 13 13 13 14 15 16 17 17 18 20 19 21 21 22 29 30 30 32 32 30 31 31 32 33 33 34 35 35 31 36 35 35 35 34 34 34 33 33
10 9 9 10 10 10 11 12 12 13 13 13 14 15 16 17 17 18 19 21 22 21 26 27 28 30 29 30 31 32 31 32 33 34 35 36 34 36 36 35 36 36 34 34 34 34 33
10 10 10 10 10 10 10 11 11 12 12 13 14 14 16 17 17 19 19 20 20 21 26 29 29 29 30 29 32 33 32 33 34 34 35 35 35 36 35 36 35 36 35 34 33 34 34
8 9 10 10 10 10 10 10 11 11 12 12 13 14 15 17 18 18 21 20 20 21 28 31 30 30 31 30 33 33 32 33 35 34 35 36 36 35 35 35 36 32 35 35 35 35 34
7 9 9 9 9 9 9 9 10 11 12 12 13 14 15 16 17 19 20 20 20 21 28 33 32 31 31 31 33 33 32 33 35 35 36 35 35 35 34 35 36 35 36 35 35 36 36
5 6 8 9 9 9 8 7 8 10 11 12 13 13 15 15 16 18 18 19 21 25 29 32 32 32 33 32 34 33 33 33 34 35 36 36 36 36 36 36 35 36 36 36 36 34 34
4 6 7 8 8 8 7 7 7 10 11 12 13 14 15 15 18 18 18 20 24 27 33 32 32 33 33 32 34 34 33 33 33 33 33 35 35 36 36 35 36 36 35 30 29 35 34
5 5 6 7 6 6 6 7 8 10 10 12 14 14 15 17 17 16 18 23 24 30 32 34 33 33 32 33 34 34 33 33 35 35 35 33 33 35 36 36 36 36 35 33 31 33 35
4 5 5 6 7 7 7 7 8 9 11 13 14 15 15 17 18 16 20 23 27 32 34 33 34 32 33 34 34 34 34 34 35 36 34 35 34 37 37 37 36 36 35 38 35 37 35
5 5 5 5 6 7 8 8 8 10 11 13 14 16 18 18 16 17 22 23 30 31 32 33 32 33 33 33 33 34 34 35 35 36 37 37 34 37 37 36 36 36 31 34 31 33 33
6 5 6 6 6 7 7 8 8 10 12 13 14 18 20 17 17 20 23 26 30 29 29 31 33 33 34 34 34 34 34 35 36 36 36 37 37 35 36 35 36 36 36 34 37 37 35
5 5 5 6 6 6 8 8 8 9 12 12 15 22 18 18 20 23 25 28 27 30 28 30 31 34 34 34 34 34 34 35 36 36 34 36 37 35 35 37 37 38 37 37 32 27 36
4 5 5 5 5 6 7 8 8 9 10 11 17 21 18 19 23 25 27 28 28 30 30 30 31 33 35 34 33 34 35 36 35 36 35 36 36 35 35 36 36 36 37 38 38 35 35
4 4 4 5 5 6 6 8 9 9 10 10 16 22 21 20 23 26 27 27 27 28 30 30 31 32 33 34 35 34 35 35 34 35 35 34 37 37 35 35 37 35 36 37 37 36 35
4 4 4 4 5 6 7 8 9 9 10 11 17 22 22 24 24 26 28 28 28 28 28 29 29 31 32 32 33 34 35 34 34 31 34 35 35 37 35 37 37 36 36 36 36 36 36
3 3 3 4 5 6 6 8 9 10 11 11 16 19 21 23 24 26 22 28 29 29 29 29 30 31 32 33 34 33 34 34 33 34 34 36 34 36 35 36 36 36 36 36 36 36 36
3 3 3 3 4 5 6 6 8 9 10 13 14 15 16 22 25 25 27 27 28 30 28 28 29 29 31 30 29 30 34 35 35 34 34 35 35 35 33 35 35 34 36 36 36 36 36
3 3 3 3 4 5 5 6 7 8 8 7 12 12 17 23 24 25 26 26 27 26 27 28 26 28 26 26 28 29 32 33 34 35 36 35 34 35 34 34 32 35 38 37 36 36 36
3 3 3 3 4 4 5 5 6 8 8 8 10 11 16 21 24 23 23 24 24 23 24 26 26 25 25 27 30 31 32 32 33 34 36 37 35 34 33 34 34 34 35 35 35 35 36
3 3 3 3 3 4 4 4 5 7 7 8 10 9 12 18 22 19 22 22 24 25 26 25 24 24 25 30 31 30 31 31 31 33 35 36 36 35 33 33 32 34 36 36 37 34 35
2 2 3 3 3 4 4 4 4 6 6 7 9 8 10 15 19 18 21 22 23 23 26 26 24 25 26 29 31 31 32 33 32 31 31 33 34 33 33 33 34 37 36 35 32 34 34
3 3 3 3 3 3 4 4 4 5 6 7 9 8 9 14 17 16 16 18 20 21 24 22 24 25 28 28 30 32 32 33 33 33 32 32 32 33 33 33 32 35 34 33 34 34 34
3 3 3 3 3 3 4 4 4 4 5 6 9 8 8 9 14 13 13 14 15 16 18 21 23 23 25 28 30 31 32 33 33 32 34 32 34 34 34 34 35 34 35 34 35 33 33